Simultaneous Nadir Overpasses (SNOs) Predictions

Prediction of SNOs near equator between AQUA and NPP Satellite Orbit:

Table of predicted SNOs near equator for the next 14.0 days since TLE Epoch: 5/6/2014
Index Date (AQUA) Time (AQUA) AQUA Lat,Lon Date (NPP) Time (NPP) NPP Lat,Lon Distance(km) Time Diff (sec)
1 05/08/2014 05:32:00 29.98, 116.26 05/08/2014 05:23:01 30.05, 116.69 41.84 539
2 05/08/2014 06:21:22 -29.95, -76.07 05/08/2014 06:13:41 -29.98, -75.96 11.36 461
3 05/08/2014 07:06:52 15.46, 95.02 05/08/2014 07:00:22 15.46, 95.02 0.20 390
4 05/08/2014 07:49:26 9.20, -92.02 05/08/2014 07:44:03 9.20, -92.04 1.72 323
5 05/08/2014 08:37:20 -15.05, 76.88 05/08/2014 08:33:12 -15.09, 76.62 27.87 248
6 05/08/2014 09:25:28 19.53,-114.45 05/08/2014 09:22:35 19.65,-114.95 54.31 173
7 05/08/2014 10:13:42 -24.15, 54.26 05/08/2014 10:12:05 -24.28, 53.51 78.40 97
8 05/08/2014 11:01:50 28.64,-136.96 05/08/2014 11:01:28 28.85,-137.96 99.79 22
9 05/10/2014 20:58:59 -29.98, 64.52 05/10/2014 20:49:13 -30.13, 65.14 62.58 586
10 05/10/2014 21:48:29 29.95,-127.85 05/10/2014 21:40:00 30.01,-127.53 32.03 509
11 05/10/2014 22:37:42 -29.37, 39.95 05/10/2014 22:30:30 -29.37, 39.98 2.59 432
12 05/10/2014 23:21:00 6.91,-147.24 05/10/2014 23:14:56 6.91,-147.23 0.87 364
13 05/11/2014 00:05:06 12.19, 24.50 05/11/2014 00:00:11 12.23, 24.43 8.75 295
14 05/11/2014 00:53:20 -16.83,-166.85 05/11/2014 00:49:41 -16.88,-167.18 36.02 219
15 05/11/2014 01:41:28 21.31, 1.84 05/11/2014 01:39:04 21.44, 1.26 61.72 144
16 05/11/2014 02:29:43 -25.86, 170.56 05/11/2014 02:28:35 -26.01, 169.72 84.99 68
17 05/13/2014 13:15:28 -29.98,-179.61 05/13/2014 13:06:12 -30.10,-179.08 52.60 556
18 05/13/2014 14:04:58 29.96, -11.98 05/13/2014 13:56:59 29.99, -11.75 22.10 479
19 05/13/2014 14:52:39 -23.91, 157.19 05/13/2014 14:45:56 -23.91, 157.19 0.16 404
20 05/13/2014 15:35:21 -0.76, -29.73 05/13/2014 15:29:44 -0.76, -29.74 0.49 337
21 05/13/2014 16:21:04 14.00, 140.78 05/13/2014 16:16:39 14.01, 140.62 17.36 265
22 05/13/2014 17:09:19 -18.57, -50.57 05/13/2014 17:06:09 -18.67, -50.98 44.12 190
23 05/13/2014 17:57:26 23.11, 118.14 05/13/2014 17:55:32 23.23, 117.48 69.05 114
24 05/13/2014 18:45:41 -27.66, -73.12 05/13/2014 18:45:02 -27.85, -74.02 91.15 39
25 05/16/2014 04:42:33 30.00, 128.61 05/16/2014 04:32:33 30.32, 129.30 75.35 600
26 05/16/2014 05:31:55 -29.96, -63.72 05/16/2014 05:23:09 -30.02, -63.29 42.60 526
27 05/16/2014 06:21:26 29.99, 103.89 05/16/2014 06:13:58 30.02, 104.01 11.83 448
28 05/16/2014 07:06:47 -15.46, -84.97 05/16/2014 07:00:30 -15.45, -84.96 1.11 377
29 05/16/2014 07:49:27 -9.36, 87.99 05/16/2014 07:44:17 -9.36, 87.98 0.59 310
30 05/16/2014 08:37:02 15.83,-102.94 05/16/2014 08:33:07 15.86,-103.18 26.07 235
31 05/16/2014 09:25:18 -20.34, 65.71 05/16/2014 09:22:38 -20.45, 65.23 52.19 160
32 05/16/2014 10:13:24 24.94,-125.54 05/16/2014 10:12:00 25.06,-126.28 76.12 84
33 05/16/2014 11:01:40 -29.42, 43.21 05/16/2014 11:01:31 -29.62, 42.24 97.22 9
34 05/18/2014 20:59:00 29.95,-115.50 05/18/2014 20:49:28 30.07,-114.86 62.74 572
35 05/18/2014 21:48:23 -29.97, 52.16 05/18/2014 21:40:09 -30.06, 52.47 32.23 494
36 05/18/2014 22:37:53 29.95,-140.22 05/18/2014 22:30:56 29.95,-140.20 1.52 417
37 05/18/2014 23:21:08 -7.80, 32.58 05/18/2014 23:15:19 -7.81, 32.58 0.40 349
38 05/19/2014 00:04:53 -13.09,-155.32 05/19/2014 00:00:13 -13.08,-155.39 7.90 280
39 05/19/2014 00:53:00 17.63, 13.35 05/19/2014 00:49:35 17.69, 13.03 34.59 205
40 05/19/2014 01:41:15 -22.19,-177.97 05/19/2014 01:39:06 -22.28,-178.55 60.17 129
41 05/19/2014 02:29:22 26.73, -9.21 05/19/2014 02:28:28 26.90, -10.03 82.95 54




NCC Satellite Simultaneous Nadir Overpasses (SNOs) Prediction Service
